Terminal Aerodrome Forecast
Issued by NWS

Home | Current Version | Previous Version | Text Only | Print | Product List | Glossary On
Versions: 1 2 3 4 5 6 7 8 9 10 11 12 13 14 15 16 17 18 19 20 21 22 23 24 25 26 27 28
000
FTPA31 PHFO 310500
TAFMDY
TAF
PMDY 310538Z 3106/0106 VRB05KT P6SM VCTS SCT025CB BKN050
      TEMPO 3106/3107 VRB15G20KT 4SM TSRA BR BKN025CB
     FM310800 14005KT P6SM VCSH SCT025 BKN050
      AMD LTD TO CLD AND WIND=

USA.gov is the U.S. government's official web portal to all federal, state and local government web resources and services.